NI4CE-14 Weather Reports


Display with metric or nautical units.
time (UTC)temp
F
wind
direction
speed
MPH
gust
MPH
rain 1hr
in
rain 24hr
in
rain mn
in
humidity
%
barometer
mb
20260901095402 83 75 0.0 1.0 0.00 0.00 0.00 100 1013.9
20260901094902 83 126 0.0 0.0 0.00 0.00 0.00 100 1013.9
20260901094712 83 126 0.0 2.0 0.00 0.00 0.00 100 1013.8
20260901094402 83 126 0.0 2.0 0.00 0.00 0.00 100 1013.8
20260901094207 83 133 0.0 0.0 0.00 0.00 0.00 100 1013.8
20260901093902 83 133 0.0 0.0 0.00 0.00 0.00 100 1013.8
20260901093652 83 133 0.0 0.0 0.00 0.00 0.00 100 1013.7
20260901093402 83 133 0.0 0.0 0.00 0.00 0.00 100 1013.7
20260901092902 83 133 0.0 0.0 0.00 0.00 0.00 100 1013.6
20260901092611 83 133 0.0 0.0 0.00 0.00 0.00 100 1013.6
20260901092402 83 133 0.0 0.0 0.00 0.00 0.00 100 1013.6
20260901091902 83 133 0.0 0.0 0.00 0.00 0.00 100 1013.7
20260901091600 83 133 0.0 0.0 0.00 0.00 0.00 100 1013.6
20260901091402 83 133 0.0 0.0 0.00 0.00 0.00 100 1013.6
20260901091130 83 133 0.0 0.0 0.00 0.00 0.00 100 1013.6
20260901090902 83 133 0.0 0.0 0.00 0.00 0.00 100 1013.6
20260901090706 83 133 0.0 0.0 0.00 0.00 0.00 100 1013.6
20260901090402 83 133 0.0 0.0 0.00 0.00 0.00 100 1013.6
20260901085902 83 133 0.0 0.0 0.00 0.00 0.00 100 1013.5
20260901085624 83 133 0.0 0.0 0.00 0.00 0.00 100 1013.5
20260901085402 83 133 0.0 0.0 0.00 0.00 0.00 100 1013.5
20260901084902 83 133 0.0 0.0 0.00 0.00 0.00 100 1013.4
20260901084550 83 133 0.0 0.0 0.00 0.00 0.00 100 1013.4
20260901084402 83 133 0.0 0.0 0.00 0.00 0.00 100 1013.4
20260901083902 83 133 0.0 2.0 0.00 0.00 0.00 100 1013.5
20260901083402 83 133 1.0 5.0 0.00 0.00 0.00 100 1013.5
20260901082902 83 16 1.0 2.0 0.00 0.00 0.00 100 1013.6
20260901082528 83 122 0.0 0.0 0.00 0.00 0.00 100 1013.6
20260901082402 83 122 0.0 0.0 0.00 0.00 0.00 100 1013.6
20260901081902 83 122 0.0 0.0 0.00 0.00 0.00 100 1013.6
20260901081402 83 122 0.0 0.0 0.00 0.00 0.00 100 1013.6
20260901080902 83 122 0.0 3.0 0.00 0.00 0.00 100 1013.6
20260901080402 83 46 0.0 0.0 0.00 0.00 0.00 100 1013.7
20260901075902 83 46 0.0 0.0 0.00 0.00 0.00 100 1013.6
20260901075402 83 46 0.0 0.0 0.00 0.00 0.00 100 1013.6
20260901075153 84 46 0.0 0.0 0.00 0.00 0.00 100 1013.6
20260901074902 84 46 0.0 0.0 0.00 0.00 0.00 100 1013.6
20260901074402 83 46 0.0 0.0 0.00 0.00 0.00 100 1013.6
20260901073902 84 46 0.0 0.0 0.00 0.00 0.00 100 1013.7
20260901073729 83 46 0.0 0.0 0.00 0.00 0.00 100 1013.8
20260901073402 83 46 0.0 0.0 0.00 0.00 0.00 100 1013.8
20260901073142 84 46 0.0 0.0 0.00 0.00 0.00 100 1013.8
20260901072902 84 46 0.0 0.0 0.00 0.00 0.00 100 1013.8
20260901072402 84 46 0.0 0.0 0.00 0.00 0.00 100 1013.8
20260901071902 83 46 0.0 0.0 0.00 0.00 0.00 100 1013.9
20260901071402 84 46 0.0 0.0 0.00 0.00 0.00 100 1013.8
20260901071139 84 46 0.0 1.0 0.00 0.00 0.00 100 1013.9
20260901070902 84 46 0.0 1.0 0.00 0.00 0.00 100 1013.9
20260901070754 84 45 0.0 1.0 0.00 0.00 0.00 100 1014.1
20260901070514 84 80 0.0 0.0 0.00 0.00 0.00 100 1014.2
20260901070402 84 45 0.0 1.0 0.00 0.00 0.00 100 1014.1
20260901070249 84 80 0.0 0.0 0.00 0.00 0.00 100 1014.2
20260901065902 84 80 0.0 0.0 0.00 0.00 0.00 100 1014.2
20260901065402 84 80 0.0 0.0 0.00 0.00 0.00 100 1014.2
20260901064902 84 80 0.0 0.0 0.00 0.00 0.00 100 1014.2
20260901064403 84 80 0.0 3.0 0.00 0.00 0.00 100 1014.3
20260901063902 84 75 0.0 0.0 0.00 0.00 0.00 100 1014.4
20260901063800 84 75 0.0 0.0 0.00 0.00 0.00 100 1014.5
20260901063402 84 75 0.0 0.0 0.00 0.00 0.00 100 1014.5
20260901062902 84 75 0.0 0.0 0.00 0.00 0.00 100 1014.6
20260901062718 84 42 0.0 0.0 0.00 0.00 0.00 100 1014.7
20260901062402 84 42 0.0 0.0 0.00 0.00 0.00 100 1014.7
20260901061902 84 42 0.0 0.0 0.00 0.00 0.00 100 1014.7
20260901061717 84 73 0.0 0.0 0.00 0.00 0.00 100 1014.7
20260901061402 84 73 0.0 0.0 0.00 0.00 0.00 100 1014.7
20260901060903 84 81 0.0 0.0 0.00 0.00 0.00 100 1014.8
20260901060704 84 81 0.0 0.0 0.00 0.00 0.00 100 1014.8
20260901060403 84 81 0.0 0.0 0.00 0.00 0.00 100 1014.8
20260901055902 84 81 0.0 2.0 0.00 0.00 0.00 100 1014.9
20260901055716 84 92 1.0 3.0 0.00 0.00 0.00 100 1014.9
20260901055403 84 92 1.0 3.0 0.00 0.00 0.00 100 1014.9
20260901054902 84 91 0.0 0.0 0.00 0.00 0.00 100 1014.9
20260901054702 84 91 0.0 0.0 0.00 0.00 0.00 100 1015.0
20260901054403 84 91 0.0 0.0 0.00 0.00 0.00 100 1015.0
20260901053902 84 91 0.0 2.0 0.00 0.00 0.00 100 1015.0
20260901053659 84 49 0.0 0.0 0.00 0.00 0.00 100 1015.0
20260901053403 84 49 0.0 0.0 0.00 0.00 0.00 100 1015.0
20260901052903 84 61 0.0 0.0 0.00 0.00 0.00 100 1015.1
20260901052655 84 61 0.0 0.0 0.00 0.00 0.00 100 1015.1
20260901052403 84 61 0.0 0.0 0.00 0.00 0.00 100 1015.1
20260901051903 84 101 0.0 1.0 0.00 0.00 0.00 100 1015.1
20260901051403 84 135 0.0 2.0 0.00 0.00 0.00 100 1015.2
20260901051224 84 91 0.0 0.0 0.00 0.00 0.00 100 1015.2
20260901050903 84 91 0.0 0.0 0.00 0.00 0.00 100 1015.2
20260901050403 84 91 0.0 0.0 0.00 0.00 0.00 100 1015.2
20260901050251 84 91 0.0 0.0 0.00 0.00 0.00 100 1015.3
20260901045903 84 91 0.0 0.0 0.00 0.00 0.00 100 1015.3
20260901045403 84 91 0.0 3.0 0.00 0.00 0.00 100 1015.4
20260901044903 84 28 0.0 1.0 0.00 0.00 0.00 100 1015.4
20260901044719 84 45 0.0 0.0 0.00 0.00 0.00 100 1015.4
20260901044403 84 45 0.0 0.0 0.00 0.00 0.00 100 1015.4
20260901043903 84 45 0.0 1.0 0.00 0.00 0.00 100 1015.4
20260901043719 84 106 0.0 2.0 0.00 0.00 0.00 100 1015.4
20260901043403 84 106 0.0 2.0 0.00 0.00 0.00 100 1015.4
20260901042903 84 94 1.0 2.0 0.00 0.00 0.00 100 1015.5
20260901042642 84 101 0.0 0.0 0.00 0.00 0.00 100 1015.5
20260901042516 84 101 0.0 0.0 0.00 0.00 0.00 100 1015.5
20260901042403 84 101 0.0 0.0 0.00 0.00 0.00 100 1015.5
20260901042004 85 28 0.0 0.0 0.00 0.00 0.00 100 1015.5
20260901041903 84 101 0.0 2.0 0.00 0.00 0.00 100 1015.6
20260901041403 85 28 0.0 0.0 0.00 0.00 0.00 100 1015.5
20260901040903 85 28 0.0 0.0 0.00 0.00 0.00 100 1015.5
20260901040403 85 28 0.0 0.0 0.00 0.00 0.00 100 1015.5
20260901035903 85 28 0.0 0.0 0.00 0.00 0.00 100 1015.5
20260901035403 85 28 0.0 0.0 0.00 0.00 0.00 100 1015.5
20260901035224 85 28 0.0 0.0 0.00 0.00 0.00 100 1015.6
20260901034903 85 28 0.0 0.0 0.00 0.00 0.00 100 1015.6
20260901034750 85 28 0.0 0.0 0.00 0.00 0.00 100 1015.7
20260901034403 85 28 0.0 0.0 0.00 0.00 0.00 100 1015.7
20260901033903 85 28 0.0 0.0 0.00 0.00 0.00 100 1015.7
20260901033403 85 28 0.0 0.0 0.00 0.00 0.00 100 1015.7
20260901032903 85 28 0.0 1.0 0.00 0.00 0.00 100 1015.7
20260901032626 85 28 0.0 3.0 0.00 0.00 0.00 100 1015.8
20260901032403 85 28 0.0 3.0 0.00 0.00 0.00 100 1015.8
20260901031903 85 74 0.0 0.0 0.00 0.00 0.00 100 1015.8
20260901031747 85 74 0.0 0.0 0.00 0.00 0.00 100 1015.8
20260901031403 85 74 0.0 0.0 0.00 0.00 0.00 100 1015.8
20260901031306 85 74 0.0 0.0 0.00 0.00 0.00 100 1015.7
20260901030903 85 74 0.0 0.0 0.00 0.00 0.00 100 1015.7
20260901030707 85 74 0.0 0.0 0.00 0.00 0.00 100 1015.5
20260901030403 85 74 0.0 0.0 0.00 0.00 0.00 100 1015.5
20260901030225 85 74 0.0 0.0 0.00 0.00 0.00 100 1015.6
20260901025903 85 74 0.0 0.0 0.00 0.00 0.00 100 1015.6
20260901025403 85 74 0.0 0.0 0.00 0.00 0.00 100 1015.6
20260901025202 85 74 0.0 0.0 0.00 0.00 0.00 100 1015.6
20260901024903 85 74 0.0 0.0 0.00 0.00 0.00 100 1015.6
20260901024403 85 74 0.0 0.0 0.00 0.00 0.00 100 1015.6
20260901024214 85 74 0.0 0.0 0.00 0.00 0.00 100 1015.6
20260901023903 85 74 0.0 0.0 0.00 0.00 0.00 100 1015.6
20260901023648 85 74 0.0 0.0 0.00 0.00 0.00 100 1015.7
20260901023403 85 74 0.0 0.0 0.00 0.00 0.00 100 1015.7
20260901022903 85 74 0.0 0.0 0.00 0.00 0.00 100 1015.7
20260901022403 85 74 0.0 0.0 0.00 0.00 0.00 100 1015.6
20260901021903 85 74 0.0 0.0 0.00 0.00 0.00 100 1015.6
20260901021746 85 74 0.0 0.0 0.00 0.00 0.00 100 1015.5
20260901021403 85 74 0.0 0.0 0.00 0.00 0.00 100 1015.5
20260901020903 85 74 0.0 0.0 0.00 0.00 0.00 100 1015.4
20260901020403 85 74 0.0 0.0 0.00 0.00 0.00 100 1015.3
20260901015903 85 74 0.0 0.0 0.00 0.00 0.00 100 1015.3
20260901015715 85 74 0.0 0.0 0.00 0.00 0.00 100 1015.3
20260901015403 85 74 0.0 0.0 0.00 0.00 0.00 100 1015.3
20260901014903 86 74 0.0 0.0 0.00 0.00 0.00 100 1015.3
20260901014403 86 74 0.0 0.0 0.00 0.00 0.00 100 1015.1
20260901014140 86 74 0.0 0.0 0.00 0.00 0.00 100 1015.1
20260901013903 86 74 0.0 0.0 0.00 0.00 0.00 100 1015.1
20260901013403 86 74 0.0 0.0 0.00 0.00 0.00 100 1015.0
20260901013248 86 74 0.0 0.0 0.00 0.00 0.00 100 1015.0
20260901012903 86 74 0.0 0.0 0.00 0.00 0.00 100 1015.0
20260901012814 86 74 0.0 0.0 0.00 0.00 0.00 100 1015.1
20260901012403 86 74 0.0 0.0 0.00 0.00 0.00 100 1015.1
20260901011903 86 74 0.0 0.0 0.00 0.00 0.00 100 1015.0
20260901011743 86 74 0.0 1.0 0.00 0.00 0.00 100 1014.9
20260901011403 86 74 0.0 1.0 0.00 0.00 0.00 100 1014.9
20260901011314 86 78 0.0 0.0 0.00 0.00 0.00 100 1013.9
20260901010903 86 78 0.0 0.0 0.00 0.00 0.00 100 1013.9
20260901010709 86 78 0.0 0.0 0.00 0.00 0.00 100 1013.8
20260901010403 86 78 0.0 0.0 0.00 0.00 0.00 100 1013.8
20260901005903 86 78 0.0 0.0 0.00 0.00 0.00 100 1013.9
20260901005635 86 78 0.0 0.0 0.00 0.00 0.00 100 1013.2
20260901005403 86 78 0.0 0.0 0.00 0.00 0.00 100 1013.2
20260901004903 86 78 0.0 0.0 0.00 0.00 0.00 100 1013.3
20260901004733 86 78 0.0 0.0 0.00 0.00 0.00 100 1013.3
20260901004403 86 78 0.0 0.0 0.00 0.00 0.00 100 1013.3
20260901003903 86 78 0.0 0.0 0.00 0.00 0.00 100 1014.2
20260901003718 87 78 0.0 0.0 0.00 0.00 0.00 100 1013.9
20260901003403 87 78 0.0 0.0 0.00 0.00 0.00 100 1013.9
20260901002903 87 78 0.0 0.0 0.00 0.00 0.00 100 1013.9
20260901002714 87 136 0.0 1.0 0.00 0.00 0.00 100 1013.3
20260901002403 87 136 0.0 1.0 0.00 0.00 0.00 100 1013.3
20260901001903 87 187 0.0 3.0 0.00 0.00 0.00 100 1013.7
20260901001403 87 195 1.0 5.0 0.00 0.00 0.00 100 1013.6
20260901000903 87 174 5.0 5.0 0.00 0.00 0.00 100 1013.5
20260901000650 87 164 0.0 2.0 0.00 0.00 0.00 100 1013.2
20260901000405 87 164 0.0 2.0 0.00 0.00 0.00 100 1013.2
20260831235903 87 174 2.0 3.0 0.00 0.00 0.00 100 1013.6
20260831235640 87 165 0.0 3.0 0.00 0.00 0.00 100 1013.2
20260831235403 87 165 0.0 3.0 0.00 0.00 0.00 100 1013.2
20260831234903 87 151 0.0 5.0 0.00 0.00 0.00 100 1013.6
20260831234403 87 265 0.0 4.0 0.00 0.00 0.00 100 1013.3
20260831233903 87 184 0.0 8.0 0.00 0.00 0.00 100 1013.2
20260831233623 88 217 2.0 6.0 0.00 0.00 0.00 100 1013.6
20260831233403 88 217 2.0 6.0 0.00 0.00 0.00 100 1013.6
20260831233239 88 223 1.0 6.0 0.00 0.00 0.00 100 1013.8
20260831232903 88 223 1.0 6.0 0.00 0.00 0.00 100 1013.8
20260831232403 88 150 2.0 5.0 0.00 0.00 0.00 100 1014.4
20260831231903 88 192 0.0 2.0 0.00 0.00 0.00 100 1014.4
20260831231403 88 149 0.0 5.0 0.00 0.00 0.00 100 1014.4
20260831230903 88 136 0.0 5.0 0.00 0.00 0.00 100 1014.3
20260831230644 88 115 3.0 6.0 0.00 0.00 0.00 100 1014.4
20260831230403 88 115 3.0 6.0 0.00 0.00 0.00 100 1014.4
20260831225903 88 70 2.0 7.0 0.00 0.00 0.00 100 1014.3
20260831225622 88 205 2.0 6.0 0.00 0.00 0.00 100 1014.2
20260831225403 88 205 2.0 6.0 0.00 0.00 0.00 100 1014.2
20260831224903 88 192 1.0 6.0 0.00 0.00 0.00 100 1014.2
20260831224403 88 139 1.0 4.0 0.00 0.00 0.00 100 1014.2
20260831223903 87 208 2.0 5.0 0.00 0.00 0.00 100 1014.3
20260831223403 87 178 1.0 7.0 0.00 0.00 0.00 100 1014.1
20260831223206 87 262 0.0 9.0 0.00 0.00 0.00 100 1014.2
20260831222903 87 262 0.0 9.0 0.00 0.00 0.00 100 1014.2
20260831222627 87 203 6.0 6.0 0.00 0.00 0.00 100 1014.4
20260831222403 87 203 6.0 6.0 0.00 0.00 0.00 100 1014.4
20260831222132 87 181 6.0 11.0 0.00 0.00 0.00 100 1014.6
20260831221903 87 181 6.0 11.0 0.00 0.00 0.00 100 1014.6
20260831221626 88 130 9.0 11.0 0.00 0.00 0.00 100 1014.6
20260831221403 88 130 9.0 11.0 0.00 0.00 0.00 100 1014.6
20260831221139 88 123 1.0 14.0 0.00 0.00 0.00 100 1014.6
20260831220903 88 123 1.0 14.0 0.00 0.00 0.00 100 1014.6
20260831220403 88 202 4.0 10.0 0.00 0.00 0.00 100 1014.6
20260831215903 89 163 4.0 9.0 0.00 0.00 0.00 100 1014.5
20260831215403 90 112 8.0 9.0 0.00 0.00 0.00 100 1014.5
20260831214903 91 175 1.0 7.0 0.00 0.00 0.00 100 1014.3
20260831214440 92 150 5.0 8.0 0.00 0.00 0.00 100 1014.3
20260831214403 92 150 5.0 8.0 0.00 0.00 0.00 100 1014.3
20260831213903 92 66 6.0 11.0 0.00 0.00 0.00 100 1013.9
20260831213709 92 18 5.0 10.0 0.00 0.00 0.00 100 1013.8
20260831213403 92 18 5.0 10.0 0.00 0.00 0.00 100 1013.8
20260831213136 92 30 6.0 10.0 0.00 0.00 0.00 100 1013.8
20260831212903 92 30 6.0 10.0 0.00 0.00 0.00 100 1013.8
20260831212403 92 56 4.0 12.0 0.00 0.00 0.00 100 1013.9
20260831211903 92 357 6.0 12.0 0.00 0.00 0.00 100 1013.8
20260831211403 92 9 11.0 11.0 0.00 0.00 0.00 100 1013.9
20260831211141 92 28 6.0 14.0 0.00 0.00 0.00 100 1013.9
20260831210904 92 28 6.0 14.0 0.00 0.00 0.00 100 1013.9
20260831210436 91 324 12.0 12.0 0.00 0.00 0.00 100 1013.9
20260831210403 91 324 12.0 12.0 0.00 0.00 0.00 100 1013.9
20260831210136 91 0 6.0 10.0 0.00 0.00 0.00 100 1013.8
20260831205903 91 0 6.0 10.0 0.00 0.00 0.00 100 1013.8
20260831205403 91 22 6.0 12.0 0.00 0.00 0.00 100 1013.8
20260831205144 91 8 10.0 12.0 0.00 0.00 0.00 100 1013.8
20260831204903 91 8 10.0 12.0 0.00 0.00 0.00 100 1013.8
20260831204624 91 25 9.0 10.0 0.00 0.00 0.00 100 1013.8
20260831204403 91 25 9.0 10.0 0.00 0.00 0.00 100 1013.8
20260831203903 91 18 6.0 12.0 0.00 0.00 0.00 100 1013.9
20260831203403 91 18 6.0 13.0 0.00 0.00 0.00 100 1013.8
20260831202903 91 341 6.0 11.0 0.00 0.00 0.00 100 1013.9
20260831202654 92 49 6.0 11.0 0.00 0.00 0.00 100 1014.0
20260831202403 92 49 6.0 11.0 0.00 0.00 0.00 100 1014.0
20260831202130 91 29 6.0 10.0 0.00 0.00 0.00 100 1014.1
20260831201903 91 29 6.0 10.0 0.00 0.00 0.00 100 1014.1
20260831201645 90 16 0.0 5.0 0.00 0.00 0.00 100 1014.1
20260831201403 90 16 0.0 5.0 0.00 0.00 0.00 100 1014.1
20260831200903 89 226 0.0 0.0 0.00 0.00 0.00 100 1014.2
20260831200403 89 226 0.0 1.0 0.00 0.00 0.00 100 1014.3
20260831195903 89 163 0.0 1.0 0.00 0.00 0.00 100 1014.4
20260831195648 90 251 1.0 5.0 0.00 0.00 0.00 100 1014.4
20260831195403 90 251 1.0 5.0 0.00 0.00 0.00 100 1014.4
20260831195131 91 215 0.0 4.0 0.00 0.00 0.00 100 1014.3
20260831194903 91 215 0.0 4.0 0.00 0.00 0.00 100 1014.3
20260831194714 92 108 0.0 2.0 0.00 0.00 0.00 100 1014.2
20260831194403 92 108 0.0 2.0 0.00 0.00 0.00 100 1014.2
20260831194132 92 126 0.0 2.0 0.00 0.00 0.00 100 1014.2
20260831193903 92 126 0.0 2.0 0.00 0.00 0.00 100 1014.2
20260831193403 92 70 1.0 3.0 0.00 0.00 0.00 100 1014.3
20260831193052 92 47 2.0 9.0 0.00 0.00 0.00 100 1014.2
20260831192903 92 75 0.0 5.0 0.00 0.00 0.00 100 1014.3
20260831192705 92 47 2.0 9.0 0.00 0.00 0.00 100 1014.2
20260831192403 92 47 2.0 9.0 0.00 0.00 0.00 100 1014.2
20260831192123 92 16 3.0 10.0 0.00 0.00 0.00 100 1014.1
20260831191903 92 16 3.0 10.0 0.00 0.00 0.00 100 1014.1
20260831191804 92 358 6.0 11.0 0.00 0.00 0.00 100 1014.1
20260831191403 92 358 6.0 11.0 0.00 0.00 0.00 100 1014.1
20260831191256 92 12 7.0 12.0 0.00 0.00 0.00 100 1014.0
20260831190903 92 12 7.0 12.0 0.00 0.00 0.00 100 1014.0
20260831190403 92 22 6.0 11.0 0.00 0.00 0.00 100 1014.1
20260831185904 92 358 5.0 14.0 0.00 0.00 0.00 100 1014.1
20260831185403 92 358 7.0 12.0 0.00 0.00 0.00 100 1014.1
20260831184904 92 340 7.0 10.0 0.00 0.00 0.00 100 1014.2
20260831184403 92 60 3.0 11.0 0.00 0.00 0.00 100 1014.3
20260831183904 92 340 8.0 13.0 0.00 0.00 0.00 100 1014.4
20260831183404 92 343 7.0 11.0 0.00 0.00 0.00 100 1014.5
20260831183226 93 9 6.0 11.0 0.00 0.00 0.00 100 1014.6
20260831182904 93 9 6.0 11.0 0.00 0.00 0.00 100 1014.6
20260831182712 92 358 8.0 11.0 0.00 0.00 0.00 100 1014.6
20260831182404 92 358 8.0 11.0 0.00 0.00 0.00 100 1014.6
20260831181904 92 56 6.0 12.0 0.00 0.00 0.00 100 1014.7
20260831181404 92 9 6.0 11.0 0.00 0.00 0.00 100 1014.8
20260831181321 92 26 7.0 11.0 0.00 0.00 0.00 100 1014.9
20260831180904 92 26 7.0 11.0 0.00 0.00 0.00 100 1014.9
20260831180404 92 21 3.0 13.0 0.00 0.00 0.00 100 1014.9
20260831180207 92 23 8.0 10.0 0.00 0.00 0.00 100 1015.0
20260831175904 92 23 8.0 10.0 0.00 0.00 0.00 100 1015.0
20260831175404 91 29 2.0 12.0 0.00 0.00 0.00 100 1015.1
20260831174904 91 56 3.0 12.0 0.00 0.00 0.00 100 1015.1
20260831174404 91 7 4.0 9.0 0.00 0.00 0.00 100 1015.1
20260831173904 91 15 5.0 10.0 0.00 0.00 0.00 100 1015.2
20260831173404 91 23 8.0 11.0 0.00 0.00 0.00 100 1015.3
20260831173241 90 5 6.0 11.0 0.00 0.00 0.00 100 1015.3
20260831172904 90 5 6.0 11.0 0.00 0.00 0.00 100 1015.3
20260831172404 90 358 8.0 9.0 0.00 0.00 0.00 100 1015.4
20260831171904 90 7 6.0 8.0 0.00 0.00 0.00 100 1015.5
20260831171404 90 19 6.0 8.0 0.00 0.00 0.00 100 1015.5
20260831171212 90 25 6.0 9.0 0.00 0.00 0.00 100 1015.5
20260831170904 90 25 6.0 9.0 0.00 0.00 0.00 100 1015.5
20260831170404 90 9 3.0 9.0 0.00 0.00 0.00 100 1015.7
20260831165904 90 15 4.0 11.0 0.00 0.00 0.00 100 1015.7
20260831165712 90 21 7.0 11.0 0.00 0.00 0.00 100 1015.8
20260831165404 90 21 7.0 11.0 0.00 0.00 0.00 100 1015.8
20260831164904 91 358 8.0 11.0 0.00 0.00 0.00 100 1015.8
20260831164404 91 2 4.0 9.0 0.00 0.00 0.00 100 1015.8
20260831163904 91 37 7.0 13.0 0.00 0.00 0.00 100 1015.9
20260831163404 92 12 8.0 11.0 0.00 0.00 0.00 100 1015.9
20260831162904 93 47 4.0 7.0 0.00 0.00 0.00 100 1015.9
20260831162713 94 32 5.0 7.0 0.00 0.00 0.00 100 1016.0
20260831162404 94 32 5.0 7.0 0.00 0.00 0.00 100 1016.0
20260831161904 93 25 0.0 5.0 0.00 0.00 0.00 100 1015.9
20260831161404 93 130 4.0 4.0 0.00 0.00 0.00 100 1015.9
20260831160904 93 338 0.0 5.0 0.00 0.00 0.00 100 1015.9
20260831160404 93 22 5.0 5.0 0.00 0.00 0.00 100 1015.8
20260831160252 94 216 0.0 3.0 0.00 0.00 0.00 100 1016.0
20260831155904 94 216 0.0 3.0 0.00 0.00 0.00 100 1016.0
20260831155634 94 192 1.0 5.0 0.00 0.00 0.00 100 1016.0
20260831155404 94 192 1.0 5.0 0.00 0.00 0.00 100 1016.0
20260831155142 93 60 0.0 4.0 0.00 0.00 0.00 100 1015.9
20260831154904 93 60 0.0 4.0 0.00 0.00 0.00 100 1015.9
20260831154404 93 139 0.0 3.0 0.00 0.00 0.00 100 1015.9
20260831153904 93 168 0.0 3.0 0.00 0.00 0.00 100 1015.8
20260831153404 92 288 0.0 4.0 0.00 0.00 0.00 100 1015.9
20260831152904 92 302 1.0 3.0 0.00 0.00 0.00 100 1015.9
20260831152404 92 43 1.0 5.0 0.00 0.00 0.00 100 1015.9
20260831151904 92 77 3.0 5.0 0.00 0.00 0.00 100 1015.8
20260831151404 92 202 4.0 6.0 0.00 0.00 0.00 100 1015.8
20260831150904 92 268 2.0 3.0 0.00 0.00 0.00 100 1015.8
20260831150404 92 129 2.0 6.0 0.00 0.00 0.00 100 1015.8
20260831145904 92 118 4.0 6.0 0.00 0.00 0.00 100 1015.8
20260831145404 92 194 0.0 3.0 0.00 0.00 0.00 100 1015.8
20260831144904 92 189 0.0 3.0 0.00 0.00 0.00 100 1015.9
20260831144404 91 116 0.0 4.0 0.00 0.00 0.00 100 1015.9
20260831143904 91 123 0.0 4.0 0.00 0.00 0.00 100 1015.8
20260831143404 91 210 0.0 4.0 0.00 0.00 0.00 100 1015.8
20260831142904 91 151 0.0 4.0 0.00 0.00 0.00 100 1015.8
20260831142404 90 205 0.0 4.0 0.00 0.00 0.00 100 1015.7
20260831142142 90 177 2.0 4.0 0.00 0.00 0.00 100 1015.7
20260831141904 90 177 2.0 4.0 0.00 0.00 0.00 100 1015.7
20260831141404 90 262 0.0 4.0 0.00 0.00 0.00 100 1015.7
20260831140904 90 167 0.0 6.0 0.00 0.00 0.00 100 1015.8
20260831140404 89 167 2.0 2.0 0.00 0.00 0.00 100 1015.8
20260831135904 89 180 0.0 3.0 0.00 0.00 0.00 100 1015.8
20260831135404 89 118 0.0 2.0 0.00 0.00 0.00 100 1015.8
20260831134904 88 157 0.0 3.0 0.00 0.00 0.00 100 1015.7
20260831134404 88 215 1.0 4.0 0.00 0.00 0.00 100 1015.9
20260831133904 88 168 0.0 4.0 0.00 0.00 0.00 100 1015.9
20260831133404 87 227 0.0 3.0 0.00 0.00 0.00 100 1015.9
20260831132904 87 98 0.0 2.0 0.00 0.00 0.00 100 1015.8
20260831132404 86 171 2.0 3.0 0.00 0.00 0.00 100 1015.8
20260831131904 86 229 0.0 0.0 0.00 0.00 0.00 100 1015.8
20260831131607 85 229 0.0 2.0 0.00 0.00 0.00 100 1015.7
20260831131404 85 229 0.0 2.0 0.00 0.00 0.00 100 1015.7
20260831130904 85 88 0.0 0.0 0.00 0.00 0.00 100 1015.7
20260831130404 84 88 0.0 0.0 0.00 0.00 0.00 100 1015.6
20260831130135 84 130 0.0 0.0 0.00 0.00 0.00 100 1015.7
20260831125904 84 130 0.0 0.0 0.00 0.00 0.00 100 1015.7
20260831125404 84 130 0.0 2.0 0.00 0.00 0.00 100 1015.6
20260831124904 84 160 0.0 0.0 0.00 0.00 0.00 100 1015.6
20260831124404 84 144 0.0 0.0 0.00 0.00 0.00 100 1015.7
20260831124147 83 144 0.0 2.0 0.00 0.00 0.00 100 1015.7
20260831123904 83 144 0.0 2.0 0.00 0.00 0.00 100 1015.7
20260831123642 83 181 0.0 0.0 0.00 0.00 0.00 100 1015.7
20260831123404 83 181 0.0 0.0 0.00 0.00 0.00 100 1015.7
20260831122904 83 73 0.0 0.0 0.00 0.00 0.00 100 1015.6
20260831122627 83 73 0.0 0.0 0.00 0.00 0.00 100 1015.5
20260831122404 83 73 0.0 0.0 0.00 0.00 0.00 100 1015.5
20260831122210 83 73 0.0 0.0 0.00 0.00 0.00 100 1015.5
20260831121904 83 73 0.0 0.0 0.00 0.00 0.00 100 1015.5
20260831121632 83 73 0.0 0.0 0.00 0.00 0.00 100 1015.4
20260831121404 83 73 0.0 0.0 0.00 0.00 0.00 100 1015.4
20260831121138 83 73 0.0 0.0 0.00 0.00 0.00 100 1015.3
20260831120951 83 73 0.0 0.0 0.00 0.00 0.00 100 1015.3
20260831120904 83 73 0.0 0.0 0.00 0.00 0.00 100 1015.3
20260831120404 83 73 0.0 0.0 0.00 0.00 0.00 100 1015.3
20260831115904 83 73 0.0 0.0 0.00 0.00 0.00 100 1015.2
20260831115538 82 73 0.0 0.0 0.00 0.00 0.00 100 1015.2
20260831115404 82 73 0.0 0.0 0.00 0.00 0.00 100 1015.2
20260831114904 82 73 0.0 0.0 0.00 0.00 0.00 100 1015.1
20260831114406 82 73 0.0 0.0 0.00 0.00 0.00 100 1015.0
20260831114404 82 73 0.0 0.0 0.00 0.00 0.00 100 1014.9
20260831113904 82 73 0.0 0.0 0.00 0.00 0.00 100 1015.0
20260831113404 82 73 0.0 0.0 0.00 0.00 0.00 100 1014.9
20260831113117 82 73 0.0 0.0 0.00 0.00 0.00 100 1014.9
20260831112904 82 73 0.0 0.0 0.00 0.00 0.00 100 1014.9
20260831112750 82 73 0.0 0.0 0.00 0.00 0.00 100 1014.9
20260831112404 82 73 0.0 0.0 0.00 0.00 0.00 100 1014.9
20260831111905 82 73 0.0 0.0 0.00 0.00 0.00 100 1014.8
20260831111404 82 73 0.0 0.0 0.00 0.00 0.00 100 1014.7
20260831110904 82 73 0.0 0.0 0.00 0.00 0.00 100 1014.6
20260831110636 82 73 0.0 0.0 0.00 0.00 0.00 100 1014.6
20260831110404 82 73 0.0 0.0 0.00 0.00 0.00 100 1014.6
20260831110137 82 73 0.0 0.0 0.00 0.00 0.00 100 1014.6
20260831105904 82 73 0.0 0.0 0.00 0.00 0.00 100 1014.6
20260831105404 82 73 0.0 0.0 0.00 0.00 0.00 100 1014.6
20260831105147 82 73 0.0 0.0 0.00 0.00 0.00 100 1014.5
20260831104904 82 73 0.0 0.0 0.00 0.00 0.00 100 1014.5
20260831104720 82 73 0.0 0.0 0.00 0.00 0.00 100 1014.4
20260831104404 82 73 0.0 0.0 0.00 0.00 0.00 100 1014.4
20260831104316 82 73 0.0 0.0 0.00 0.00 0.00 100 1014.4
20260831103904 82 73 0.0 0.0 0.00 0.00 0.00 100 1014.4
20260831103404 82 73 0.0 0.0 0.00 0.00 0.00 100 1014.4
20260831102904 82 73 0.0 0.0 0.00 0.00 0.00 100 1014.3
20260831102404 82 73 0.0 0.0 0.00 0.00 0.00 100 1014.2
20260831101904 82 73 0.0 0.0 0.00 0.00 0.00 100 1014.2
20260831101404 82 73 0.0 0.0 0.00 0.00 0.00 100 1014.2
20260831100904 82 73 0.0 0.0 0.00 0.00 0.00 100 1014.3
20260831100707 82 73 0.0 0.0 0.00 0.00 0.00 100 1014.2
20260831100404 82 73 0.0 0.0 0.00 0.00 0.00 100 1014.2
20260831100246 81 175 0.0 0.0 0.00 0.00 0.00 100 1014.6
20260831095904 82 73 0.0 0.0 0.00 0.00 0.00 100 1014.3